EW9831 Weather Reports


time (UTC)temp
C
wind
direction
speed
KPH
gust
KPH
rain 1hr
cm
rain 24hr
cm
rain mn
cm
humidity
%
barometer
mb
20180625080603 18 340 4.8 4.8 0.00 0.00 0.00 86 1016.1
20180625075602 18 340 4.8 4.8 0.00 0.00 0.00 86 1016.0
20180625075103 18 340 4.8 4.8 0.00 0.00 0.00 86 1015.9
20180625074602 18 320 1.6 3.2 0.00 0.00 0.00 86 1015.9
20180625074102 18 320 1.6 3.2 0.00 0.00 0.00 86 1015.7
20180625072603 18 320 1.6 3.2 0.00 0.00 0.00 86 1015.5
20180625072103 18 320 1.6 3.2 0.00 0.00 0.00 86 1015.5
20180625070603 18 320 1.6 3.2 0.00 0.00 0.00 86 1015.5
20180625065603 18 320 1.6 3.2 0.00 0.00 0.00 87 1015.7
20180625064103 18 320 1.6 3.2 0.00 0.00 0.00 88 1015.6
20180625063603 18 320 1.6 3.2 0.00 0.00 0.00 88 1015.6
20180625063103 18 320 1.6 3.2 0.00 0.00 0.00 87 1015.6
20180625061603 18 320 8.0 8.0 0.00 0.00 0.00 87 1015.5
20180625061103 18 320 8.0 8.0 0.00 0.00 0.00 87 1015.4
20180625060104 18 320 8.0 8.0 0.00 0.00 0.00 87 1015.4
20180625055603 18 320 8.0 8.0 0.00 0.00 0.00 87 1015.4
20180625055103 18 320 8.0 8.0 0.00 0.00 0.00 87 1015.3
20180625054603 18 320 8.0 8.0 0.00 0.00 0.00 87 1015.3
20180625054103 18 320 8.0 8.0 0.00 0.00 0.00 87 1015.1
20180625053603 18 320 8.0 8.0 0.00 0.00 0.00 87 1015.1
20180625052603 18 320 8.0 8.0 0.00 0.00 0.00 87 1015.1
20180625051603 18 330 4.8 4.8 0.00 0.00 0.00 87 1015.0
20180625050104 18 330 4.8 4.8 0.00 0.00 0.00 87 1014.6
20180625045603 18 330 4.8 4.8 0.00 0.00 0.00 87 1014.6
20180625045104 18 330 4.8 9.7 0.00 0.00 0.00 87 1014.5
20180625044610 18 320 9.7 9.7 0.00 0.00 0.00 87 1014.5
20180625044103 18 320 9.7 9.7 0.00 0.00 0.00 87 1014.4
20180625043603 18 320 9.7 9.7 0.00 0.00 0.00 87 1014.4
20180625042603 18 320 9.7 9.7 0.00 0.00 0.00 87 1014.4
20180625042103 18 320 9.7 9.7 0.00 0.00 0.00 87 1014.5
20180625040603 18 310 9.7 9.7 0.00 0.00 0.00 87 1014.6
20180625035603 18 310 9.7 9.7 0.00 0.00 0.00 87 1014.5
20180625034603 18 330 8.0 8.0 0.00 0.00 0.00 87 1014.5
20180625033603 18 330 8.0 8.0 0.00 0.00 0.00 87 1014.4
20180625033103 18 330 8.0 8.0 0.00 0.00 0.00 87 1014.3
20180625032604 18 330 8.0 8.0 0.00 0.00 0.00 87 1014.3
20180625030603 18 340 4.8 4.8 0.00 0.00 0.00 86 1014.3
20180625030104 18 340 4.8 4.8 0.00 0.00 0.00 85 1014.3
20180625025604 18 340 4.8 4.8 0.00 0.00 0.00 85 1014.3
20180625025104 18 340 4.8 9.7 0.00 0.00 0.00 85 1014.3
20180625024604 18 320 9.7 9.7 0.00 0.00 0.00 85 1014.3
20180625024103 18 320 9.7 9.7 0.00 0.00 0.00 84 1014.3
20180625023104 18 320 9.7 9.7 0.00 0.00 0.00 83 1014.3
20180625022603 18 320 9.7 9.7 0.00 0.00 0.00 83 1014.3
20180625021603 18 320 9.7 9.7 0.00 0.00 0.00 83 1014.5
20180625020604 18 320 9.7 9.7 0.00 0.00 0.00 83 1014.5
20180625020104 18 320 9.7 9.7 0.00 0.00 0.00 82 1014.6
20180625015603 18 320 9.7 9.7 0.00 0.00 0.00 82 1014.6
20180625014604 18 300 9.7 9.7 0.00 0.00 0.00 82 1014.7
20180625014103 18 300 9.7 9.7 0.00 0.00 0.00 82 1014.7
20180625013603 18 300 9.7 9.7 0.00 0.00 0.00 82 1014.8
20180625012103 18 300 9.7 9.7 0.00 0.00 0.00 82 1014.8
20180625011603 19 320 8.0 8.0 0.00 0.00 0.00 81 1014.7
20180625010604 19 320 8.0 8.0 0.00 0.00 0.00 81 1014.9
20180625010104 19 320 8.0 8.0 0.00 0.00 0.00 81 1015.0
20180625005604 19 320 8.0 8.0 0.00 0.00 0.00 81 1015.0
20180625005103 19 320 8.0 8.0 0.00 0.00 0.00 81 1015.1
20180625004603 19 350 4.8 4.8 0.00 0.00 0.00 81 1015.1
20180625004104 19 350 4.8 4.8 0.00 0.00 0.00 81 1015.1
20180625003603 19 350 4.8 4.8 0.00 0.00 0.00 81 1015.1
20180625003104 19 350 4.8 4.8 0.00 0.00 0.00 81 1015.1
20180625002104 19 350 4.8 4.8 0.00 0.00 0.00 81 1015.1
20180625001603 19 320 4.8 4.8 0.00 0.00 0.00 80 1015.2
20180625001104 19 320 4.8 4.8 0.00 0.00 0.00 80 1015.2
20180624235104 19 320 4.8 4.8 0.00 0.00 0.00 80 1015.2
20180624234103 19 310 4.8 4.8 0.00 0.00 0.00 80 1015.4
20180624233604 19 310 4.8 4.8 0.00 0.00 0.00 80 1015.4
20180624232104 19 310 4.8 8.0 0.00 0.00 0.00 80 1015.4
20180624230104 19 0 8.0 8.0 0.00 0.00 0.00 80 1015.5
20180624225604 19 0 8.0 8.0 0.00 0.00 0.00 79 1015.5
20180624225103 19 0 8.0 8.0 0.00 0.00 0.00 79 1015.5
20180624224603 19 330 4.8 4.8 0.00 0.00 0.00 79 1015.6
20180624224104 19 330 4.8 4.8 0.00 0.00 0.00 79 1015.6
20180624221103 20 0 8.0 8.0 0.00 0.00 0.00 77 1015.7
20180624215603 20 0 8.0 8.0 0.00 0.00 0.00 76 1015.8
20180624215104 20 0 8.0 8.0 0.00 0.00 0.00 76 1015.8
20180624214604 20 330 1.6 3.2 0.00 0.00 0.00 75 1015.9
20180624214104 20 330 1.6 3.2 0.00 0.00 0.00 75 1015.9
20180624213603 20 330 1.6 3.2 0.00 0.00 0.00 75 1015.7
20180624212603 20 330 1.6 3.2 0.00 0.00 0.00 74 1015.6
20180624212103 20 330 1.6 4.8 0.00 0.00 0.00 74 1015.6
20180624211603 20 330 4.8 4.8 0.00 0.00 0.00 73 1015.6
20180624211103 20 330 4.8 4.8 0.00 0.00 0.00 73 1015.6
20180624210604 20 330 4.8 4.8 0.00 0.00 0.00 73 1015.7
20180624205604 20 330 4.8 4.8 0.00 0.00 0.00 73 1015.6
20180624204103 20 250 1.6 3.2 0.00 0.00 0.00 72 1015.4
20180624202604 21 250 1.6 3.2 0.00 0.00 0.00 71 1015.3
20180624202103 21 250 1.6 3.2 0.00 0.00 0.00 71 1015.3
20180624200105 21 250 1.6 3.2 0.00 0.00 0.00 69 1015.4
20180624193603 21 250 1.6 3.2 0.00 0.00 0.00 69 1015.4
20180624193104 21 250 1.6 3.2 0.00 0.00 0.00 69 1015.4
20180624192103 21 250 1.6 4.8 0.00 0.00 0.00 68 1015.4
20180624191604 21 250 4.8 4.8 0.00 0.00 0.00 68 1015.4
20180624185604 22 250 4.8 4.8 0.00 0.00 0.00 68 1015.5
20180624185104 22 250 4.8 8.0 0.00 0.00 0.00 68 1015.5
20180624184603 22 230 8.0 8.0 0.00 0.00 0.00 68 1015.5
20180624184104 22 230 8.0 8.0 0.00 0.00 0.00 68 1015.5
20180624183604 22 230 8.0 8.0 0.00 0.00 0.00 68 1015.5
20180624182104 22 230 8.0 9.7 0.00 0.00 0.00 67 1015.4
20180624181604 22 250 9.7 9.7 0.00 0.00 0.00 67 1015.3
20180624180604 22 250 9.7 9.7 0.00 0.00 0.00 67 1015.2
20180624175604 22 250 9.7 9.7 0.00 0.00 0.00 67 1015.3
20180624174104 22 260 9.7 9.7 0.00 0.00 0.00 66 1015.2
20180624173104 23 260 9.7 9.7 0.00 0.00 0.00 66 1015.1
20180624172104 23 260 9.7 9.7 0.00 0.00 0.00 65 1015.1
20180624171604 23 260 4.8 4.8 0.00 0.00 0.00 65 1015.0
20180624171104 23 260 4.8 4.8 0.00 0.00 0.00 65 1015.0
20180624165604 23 260 4.8 4.8 0.00 0.00 0.00 65 1014.9
20180624164104 23 280 1.6 3.2 0.00 0.00 0.00 65 1015.0
20180624162603 23 280 1.6 3.2 0.00 0.00 0.00 65 1015.0
20180624162103 23 280 1.6 8.0 0.00 0.00 0.00 65 1015.0
20180624161604 23 280 8.0 8.0 0.00 0.00 0.00 65 1015.1
20180624160104 23 280 8.0 8.0 0.00 0.00 0.00 65 1015.1
20180624155604 23 280 8.0 8.0 0.00 0.00 0.00 64 1015.1
20180624155104 23 280 8.0 9.7 0.00 0.00 0.00 64 1015.1
20180624154604 23 280 9.7 9.7 0.00 0.00 0.00 66 1015.2
20180624153604 23 280 9.7 9.7 0.00 0.00 0.00 65 1015.2
20180624153104 23 280 9.7 9.7 0.00 0.00 0.00 65 1015.2
20180624152104 23 280 9.7 12.9 0.00 0.00 0.00 65 1015.2
20180624151604 23 260 12.9 12.9 0.00 0.00 0.00 65 1015.3
20180624150104 23 260 12.9 12.9 0.00 0.00 0.00 65 1015.4
20180624145104 23 260 12.9 12.9 0.00 0.00 0.00 66 1015.3
20180624144604 23 260 11.3 11.3 0.00 0.00 0.00 66 1015.5
20180624143604 23 260 11.3 11.3 0.00 0.00 0.00 66 1015.5
20180624143104 23 260 11.3 11.3 0.00 0.00 0.00 66 1015.5
20180624142104 23 260 11.3 14.5 0.00 0.00 0.00 66 1015.6
20180624141604 23 230 14.5 14.5 0.00 0.00 0.00 66 1015.6
20180624140104 23 230 14.5 14.5 0.00 0.00 0.00 66 1015.7
20180624133605 24 240 11.3 11.3 0.00 0.00 0.00 66 1015.6
20180624133104 24 240 11.3 11.3 0.00 0.00 0.00 66 1015.6
20180624132604 24 240 11.3 11.3 0.00 0.00 0.00 66 1015.5
20180624132104 24 240 11.3 12.9 0.00 0.00 0.00 66 1015.5
20180624131605 23 230 12.9 12.9 0.00 0.00 0.00 66 1015.6
20180624130104 23 230 12.9 12.9 0.00 0.00 0.00 66 1015.6
20180624124604 24 230 14.5 14.5 0.00 0.00 0.00 66 1015.7
20180624124104 24 230 14.5 14.5 0.00 0.00 0.00 66 1015.7
20180624123104 24 230 14.5 14.5 0.00 0.00 0.00 66 1015.7
20180624122604 24 230 14.5 14.5 0.00 0.00 0.00 64 1015.7
20180624122105 24 230 14.5 16.1 0.00 0.00 0.00 64 1015.7
20180624121604 25 210 16.1 16.1 0.00 0.00 0.00 63 1015.8
20180624121104 25 210 16.1 16.1 0.00 0.00 0.00 63 1015.8
20180624120604 25 210 16.1 16.1 0.00 0.00 0.00 61 1015.8
20180624120105 25 210 16.1 16.1 0.00 0.00 0.00 61 1015.8
20180624115104 26 210 16.1 16.1 0.00 0.00 0.00 59 1015.7
20180624114604 27 200 16.1 16.1 0.00 0.00 0.00 57 1015.7
20180624113604 27 200 16.1 16.1 0.00 0.00 0.00 55 1015.5
20180624112605 28 200 16.1 16.1 0.00 0.00 0.00 54 1015.5
20180624111104 28 200 14.5 14.5 0.00 0.00 0.00 55 1015.4
20180624110604 28 200 14.5 14.5 0.00 0.00 0.00 55 1015.3
20180624110105 28 200 14.5 14.5 0.00 0.00 0.00 55 1015.3
20180624105604 28 200 14.5 14.5 0.00 0.00 0.00 57 1015.3
20180624104607 28 180 11.3 11.3 0.00 0.00 0.00 57 1015.2
20180624104109 28 180 11.3 11.3 0.00 0.00 0.00 57 1015.2
20180624102604 27 180 11.3 11.3 0.00 0.00 0.00 61 1015.1
20180624102104 27 180 11.3 11.3 0.00 0.00 0.00 61 1015.1
20180624101104 27 200 11.3 11.3 0.00 0.00 0.00 61 1015.0
20180624100604 26 200 11.3 11.3 0.00 0.00 0.00 65 1015.0
20180624094604 25 210 9.7 9.7 0.00 0.00 0.00 69 1014.9
20180624093604 24 210 9.7 9.7 0.00 0.00 0.00 69 1015.0
20180624090605 23 180 11.3 11.3 0.00 0.00 0.00 73 1015.0
20180624085605 22 180 11.3 11.3 0.00 0.00 0.00 75 1015.0
20180624085104 22 180 11.3 11.3 0.00 0.00 0.00 75 1015.0
20180624084604 22 200 11.3 11.3 0.00 0.00 0.00 77 1014.9
20180624082604 21 200 11.3 11.3 0.00 0.00 0.00 79 1014.8